[[{"header":{"parameterUnit":"m.s-1","parameterCategory":1,"la1":30.2991,"la2":30.254,"lo1":-89.0895,"lo2":-89.0444,"dy":0.0017,"dx":0.0017,"nx":28,"ny":28,"refTime":"2024-06-17T03:00:00:Z","depth":0,"parameterNumber":2,"parameterNumberName":"U-component_of_WINDS"},"data":[0,0,0,0,0,0,0,0,0,0,0,0,0,0,0,0,0,0,0,0,0,0,0,0,0,0,0,0,0,0,0,0,0,0,0,0,0,0,0,0,0,0,0,0,0,0,0,0,0,0,0,0,0,0,0,0,0,0,-6.7603,-6.7603,0,-6.7648,-6.7648,-6.7649,-6.7532,-6.7528,-6.7525,-6.7521,-6.7565,-6.7569,-6.7574,0,0,0,0,0,0,0,0,0,0,0,0,0,-6.7413,-6.7418,-6.7603,-6.7603,-6.7604,-6.7648,-6.7648,-6.7649,-6.7533,-6.7528,-6.7524,-6.752,-6.7563,-6.7569,-6.7574,0,0,0,0,0,0,0,0,0,0,0,0,0,-6.7481,-6.7419,-6.7602,-6.7551,-6.7547,-6.7648,-6.7648,-6.7649,-6.7534,-6.7528,-6.7523,-6.7518,-6.7562,-6.7568,-6.7575,-6.7727,0,0,-6.7596,-6.7599,0,0,0,0,0,0,0,0,-6.7477,-6.7488,-6.7558,-6.7555,-6.755,-6.7579,-6.7597,-6.7675,-6.7535,-6.7539,-6.7521,-6.7515,-6.7574,-6.7579,-6.76,-6.7729,-6.7731,-6.7597,-6.7601,-6.7604,-6.7606,0,0,0,0,0,0,0,-6.7473,-6.7485,-6.762,-6.7559,-6.7555,-6.7525,-6.7529,-6.7612,-6.7586,-6.7538,-6.753,-6.7537,-6.7571,-6.7593,-6.76,-6.7731,-6.7596,-6.7602,-6.7607,-6.7609,-6.7986,-6.7991,0,0,0,0,0,0,-6.7475,-6.7482,-6.7619,-6.7622,-6.75,-6.7533,-6.7537,-6.7575,-6.7585,-6.7581,-6.7541,-6.7531,-6.7584,-6.7592,-6.7601,-6.7777,-6.7604,-6.761,-6.7614,-6.798,-6.7987,-6.7993,0,0,0,0,0,0,-6.7471,-6.7488,-6.7617,-6.755,-6.7564,-6.7542,-6.7586,-6.7579,-6.7601,-6.7588,-6.7582,-6.7569,-6.758,-6.7591,-6.7696,-6.7777,-6.7613,-6.7619,-6.7973,-6.7982,-6.799,-6.8133,0,0,0,0,0,0,-6.7466,-6.7488,-6.7545,-6.7552,-6.7568,-6.7712,-6.7591,-6.7584,-6.7614,-6.7601,-6.7612,-6.7609,-6.7577,-6.7687,-6.7703,-6.7784,-6.7625,-6.7965,-6.7977,-6.7987,-6.812,-6.8145,-6.8166,0,0,0,0,0,-6.746,-6.7583,-6.7549,-6.7566,-6.764,-6.7717,-6.7726,-6.7687,-6.7621,-6.7678,-6.7669,-6.7609,-6.7767,-6.7698,-6.7716,-6.78,-6.796,-6.7974,-6.7987,-6.811,-6.814,-6.8166,0,0,0,0,0,0,-6.7585,-6.7583,-6.7545,-6.7674,-6.7697,-6.7698,-6.7768,-6.7721,-6.7762,-6.7748,-6.7698,-6.7702,-6.7815,-6.7818,-6.7742,-6.7947,-6.7852,-6.7869,-6.794,-6.7968,-6.7991,-6.7986,-6.763,0,0,0,0,0,-6.7629,-6.7693,-6.7687,-6.7801,-6.7815,-6.7791,-6.7823,-6.7791,-6.7812,-6.7821,-6.782,-6.7842,-6.7896,-6.7933,-6.7982,-6.8122,-6.8121,-6.8188,-6.8211,-6.823,-6.8245,-6.8317,-6.8346,-6.8037,-6.8037,-6.8037,0,0,-6.7717,-6.7724,-6.7767,-6.7827,-6.7841,-6.7907,-6.7799,-6.7874,-6.7922,-6.7832,-6.793,-6.7931,-6.7952,-6.8075,-6.8129,-6.8081,-6.8331,-6.8247,-6.8262,-6.8266,-6.8334,-6.8363,-6.8389,-6.8046,-6.8044,-6.8043,0,0,-6.7912,-6.7925,-6.8021,-6.8038,-6.8061,-6.8044,-6.8067,-6.8076,-6.8072,-6.8171,-6.8105,-6.8162,-6.8257,-6.8274,-6.8296,-6.85,-6.8445,-6.8518,-6.8636,-6.8707,-6.8732,-6.8753,-6.8823,-6.885,-6.8533,-6.8533,-6.8534,0,-6.8019,-6.8117,-6.8076,-6.8156,-6.8183,-6.8107,-6.8203,-6.8221,-6.8259,-6.8279,-6.8226,-6.8344,-6.8353,-6.8477,-6.8527,-6.8548,-6.8572,-6.8514,-6.8732,-6.8753,-6.8772,-6.8838,-6.8865,-6.8542,-6.8541,-6.854,-6.8539,0,-6.8246,-6.8316,-6.839,-6.843,-6.8466,-6.8554,-6.8525,-6.8567,-6.8534,-6.8522,-6.8623,-6.8632,-6.8682,-6.871,-6.8677,-6.883,-6.8799,-6.8741,-6.8643,-6.881,-6.8872,-6.8897,-6.8554,-6.8551,-6.8548,-6.8546,0,0,-6.8518,-6.8535,-6.8563,-6.8579,-6.86,-6.8652,-6.8737,-6.8786,-6.8822,-6.8852,-6.892,-6.9004,-6.8949,-6.8974,-6.8943,-6.9006,-6.9164,-6.8938,-6.8938,-6.8978,-6.9331,-6.9374,-6.9404,-6.913,-6.9135,-6.9138,-6.9329,0,-6.8708,-6.8853,-6.882,-6.8962,-6.9025,-6.8954,-6.9027,-6.9048,-6.904,-6.9092,-6.9083,-6.9142,-6.9067,-6.9081,-6.9141,-6.9133,-6.9234,-6.9119,-6.9191,-6.9194,-6.9184,-6.9437,-6.9481,-6.966,-6.9353,-6.9357,-6.936,0,-6.8949,-6.8988,-6.9138,-6.9148,-6.9173,-6.924,-6.9282,-6.9333,-6.9355,-6.9345,-6.9374,-6.9331,-6.9413,-6.9319,-6.9431,-6.9353,-6.9381,-6.9382,-6.9388,-6.939,-6.9284,-6.9443,-6.9717,-6.9743,-6.9398,-6.9395,-6.9392,0,-6.9129,-6.922,-6.932,-6.9337,-6.9353,-6.9401,-6.941,-6.9426,-6.9458,-6.9496,-6.9515,-6.9562,-6.9587,-6.9624,-6.9595,-6.9529,-6.9711,-6.9614,-6.9703,-6.9704,-6.9742,-6.9739,-7.0021,-6.9766,-6.9765,-6.9765,-6.9764,0,-6.9343,-6.9436,-6.9401,-6.9463,-6.9565,-6.9527,-6.9629,-6.9629,-6.9645,-6.9705,-6.9648,-6.9705,-6.9664,-6.9718,-6.9696,-6.9791,-6.9803,-6.9796,-6.9788,-6.98,-6.98,-6.9814,-6.98,-6.9772,-6.977,-6.9769,-6.9768,0,-6.956,-6.954,-6.9645,-6.9652,-6.9656,-6.9731,-6.9736,-6.9793,-6.9783,-6.9859,-6.9875,-6.9858,-6.9918,-6.9893,-6.9957,-6.9942,-7.0064,-7.0041,-7.0056,-7.0049,-7.0138,-7.0129,-7.0437,-7.0474,-7.0198,-7.0201,-7.0203,0,-6.9696,-6.9766,-6.9781,-6.9818,-6.9831,-6.989,-6.9923,-6.9888,-6.9924,-6.9955,-7.0008,-7.0064,-7.0106,-7.0205,-7.0198,-7.0246,-7.0223,-7.0327,-7.0229,-7.0238,-7.0221,-7.0216,-7.0222,-7.0346,-7.0349,-7.0351,-7.0354,0,-6.9939,-6.9926,-6.9976,-7.0023,-7.0064,-7.0099,-7.0128,-7.0161,-7.0128,-7.0172,-7.0233,-7.0266,-7.0332,-7.0387,-7.0431,-7.0438,-7.039,-7.0385,-7.0408,-7.0418,-7.0423,-7.0419,-7.0106,-7.0377,-7.0375,-7.0373,-7.0372,-7.0371,-7.0117,-7.0176,-7.0196,-7.0253,-7.0273,-7.0302,-7.0356,-7.0353,-7.0403,-7.0454,-7.0431,-7.0502,-7.0522,-7.0575,-7.059,-7.0645,-7.0603,-7.0637,-7.0645,-7.0653,-7.0663,-7.0417,-7.0653,-7.0652,-7.0651,-7.0651,-7.065,0,-7.0355,-7.0365,-7.0418,-7.0462,-7.0507,-7.0461,-7.0492,-7.0532,-7.0595,-7.0619,-7.0662,-7.0733,-7.0787,-7.0785,-7.0834,-7.0878,-7.0857,-7.0892,-7.0887,-7.0889,-7.0698,-7.0673,-7.0908,-7.0908,-7.0908,-7.0908,-7.0908,-7.0908,-7.0484,-7.058,-7.0571,-7.0676,-7.0685,-7.0755,-7.0776,-7.0803,-7.0821,-7.0903,-7.0948,-7.0947,-7.096,-7.101,-7.1057,-7.1055,-7.1075,-7.1117,-7.1107,-7.0928,-7.0902,-7.0878,-7.0853,-7.1123,-7.1123,-7.1292,-7.1294,-7.1295]},{"header":{"parameterUnit":"m.s-1","parameterCategory":1,"la1":30.2991,"la2":30.254,"lo1":-89.0895,"lo2":-89.0444,"dy":0.0017,"dx":0.0017,"nx":28,"ny":28,"refTime":"2024-06-17T03:00:00:Z","depth":0,"parameterNumber":3,"parameterNumberName":"V-component_of_WINDS"},"data":[0,0,0,0,0,0,0,0,0,0,0,0,0,0,0,0,0,0,0,0,0,0,0,0,0,0,0,0,0,0,0,0,0,0,0,0,0,0,0,0,0,0,0,0,0,0,0,0,0,0,0,0,0,0,0,0,0,0,2.8703,2.8704,0,2.8817,2.8818,2.8819,2.8871,2.8871,2.8871,2.887,2.8984,2.8987,2.899,0,0,0,0,0,0,0,0,0,0,0,0,0,2.8526,2.8529,2.8702,2.8704,2.8705,2.8817,2.8818,2.882,2.8871,2.8871,2.887,2.887,2.8983,2.8987,2.8991,0,0,0,0,0,0,0,0,0,0,0,0,0,2.8617,2.853,2.8702,2.8744,2.8749,2.8816,2.8818,2.882,2.8871,2.8871,2.887,2.887,2.8982,2.8987,2.8991,2.9024,0,0,2.9006,2.9008,0,0,0,0,0,0,0,0,2.8612,2.8624,2.8737,2.8742,2.8747,2.8829,2.8798,2.8888,2.8871,2.8825,2.887,2.887,2.8933,2.8941,2.8963,2.9029,2.9034,2.9006,2.9009,2.9011,2.9012,0,0,0,0,0,0,0,2.8606,2.8619,2.8748,2.8738,2.8745,2.8757,2.8769,2.8815,2.8878,2.8829,2.8833,2.8846,2.8935,2.8958,2.8966,2.9036,2.9006,2.901,2.9013,2.9015,2.9135,2.9135,0,0,0,0,0,0,2.8593,2.8614,2.8744,2.8751,2.8678,2.876,2.8774,2.8803,2.8878,2.8889,2.8846,2.8848,2.8951,2.8961,2.897,2.9014,2.9011,2.9015,2.9018,2.9134,2.9135,2.9135,0,0,0,0,0,0,2.8589,2.8604,2.8739,2.8684,2.8702,2.8763,2.8795,2.8805,2.8829,2.8891,2.8902,2.8858,2.8951,2.8964,2.9011,2.9019,2.9017,2.9022,2.9134,2.9134,2.9135,2.9101,0,0,0,0,0,0,2.8584,2.8602,2.8616,2.8683,2.8704,2.8778,2.8796,2.8808,2.8837,2.8841,2.8905,2.8916,2.8952,2.9003,2.9015,2.9025,2.9025,2.9133,2.9134,2.9135,2.9102,2.91,2.9099,0,0,0,0,0,2.8577,2.8601,2.8617,2.8632,2.8723,2.8779,2.8791,2.8833,2.8837,2.8852,2.8891,2.8914,2.9016,2.9008,2.9022,2.9033,2.9133,2.9134,2.9135,2.9102,2.9101,2.9099,0,0,0,0,0,0,2.8533,2.8611,2.8629,2.8676,2.872,2.8787,2.8807,2.883,2.8873,2.8874,2.8924,2.8938,2.898,2.9011,2.9001,2.9069,2.9076,2.908,2.9047,2.9046,2.9045,2.9036,2.9029,0,0,0,0,0,2.8528,2.8568,2.8634,2.8669,2.8691,2.8744,2.877,2.8799,2.8847,2.8865,2.8909,2.8953,2.8996,2.9022,2.9065,2.9106,2.9121,2.9121,2.912,2.9118,2.9121,2.9145,2.9146,2.9138,2.9138,2.9138,0,0,2.852,2.8567,2.8589,2.8661,2.8699,2.8738,2.876,2.88,2.883,2.8871,2.8919,2.8952,2.9005,2.9049,2.9071,2.9076,2.9126,2.9119,2.9118,2.9121,2.9146,2.9147,2.9147,2.9138,2.9138,2.9138,0,0,2.8524,2.8564,2.8598,2.8636,2.8694,2.8729,2.8737,2.8801,2.8825,2.8873,2.8905,2.894,2.9012,2.9048,2.9076,2.9094,2.9116,2.9106,2.91,2.9123,2.9124,2.9124,2.9131,2.9133,2.9109,2.9109,2.9108,0,2.8506,2.8568,2.8612,2.8652,2.8682,2.8722,2.8756,2.879,2.8858,2.8878,2.8883,2.8974,2.9012,2.9066,2.907,2.9092,2.9102,2.9099,2.912,2.9121,2.9123,2.9129,2.9132,2.9107,2.9107,2.9107,2.9107,0,2.8543,2.8584,2.8605,2.867,2.8703,2.8739,2.8789,2.8816,2.8841,2.8876,2.8924,2.8972,2.9024,2.9039,2.9064,2.9096,2.9098,2.9111,2.912,2.9121,2.9128,2.9131,2.9105,2.9105,2.9106,2.9106,0,0,2.8523,2.8613,2.862,2.865,2.8716,2.8749,2.8786,2.8839,2.8861,2.8906,2.8939,2.8998,2.9011,2.9043,2.9072,2.9092,2.9103,2.9103,2.9105,2.9101,2.9142,2.9132,2.9134,2.9118,2.9119,2.9119,2.9137,0,2.8537,2.8608,2.8649,2.8702,2.8741,2.8779,2.8812,2.8855,2.8889,2.8926,2.8962,2.9004,2.9017,2.9037,2.9058,2.9097,2.9112,2.9096,2.9148,2.9149,2.9134,2.9138,2.9128,2.9142,2.914,2.9141,2.9141,0,2.8563,2.8608,2.8666,2.8728,2.8745,2.8774,2.8826,2.8861,2.891,2.8933,2.8968,2.8997,2.9038,2.9043,2.9099,2.9087,2.911,2.9133,2.9134,2.9141,2.9146,2.9145,2.9148,2.915,2.9146,2.9146,2.9145,0,2.8543,2.8619,2.8663,2.8687,2.876,2.878,2.8811,2.8861,2.8889,2.8934,2.8953,2.9001,2.9027,2.9063,2.9104,2.9104,2.9155,2.9164,2.9175,2.9174,2.9184,2.9183,2.9192,2.9198,2.9198,2.9198,2.9198,0,2.8555,2.8589,2.8655,2.8682,2.8721,2.8767,2.8804,2.8838,2.8881,2.8915,2.895,2.8981,2.9033,2.907,2.9102,2.9143,2.9155,2.9174,2.9182,2.9171,2.9168,2.9187,2.9187,2.9199,2.9199,2.9199,2.9199,0,2.854,2.8586,2.8637,2.8702,2.8719,2.8744,2.8799,2.8827,2.8862,2.8904,2.8916,2.8971,2.9016,2.906,2.912,2.9142,2.9183,2.9193,2.9166,2.9171,2.918,2.9178,2.9201,2.9206,2.9209,2.9208,2.9208,0,2.8545,2.8572,2.864,2.8665,2.8696,2.8737,2.8767,2.8813,2.8842,2.8901,2.8921,2.8969,2.901,2.908,2.9124,2.917,2.9182,2.9187,2.919,2.9178,2.9183,2.9181,2.9184,2.9186,2.9186,2.9185,2.9185,0,2.8548,2.857,2.8612,2.8662,2.8697,2.8738,2.8781,2.8799,2.8854,2.8885,2.8932,2.8963,2.9025,2.9072,2.9124,2.9155,2.9179,2.9184,2.9189,2.9179,2.9162,2.9171,2.9163,2.9184,2.9184,2.9184,2.9184,2.9184,2.8544,2.857,2.8622,2.8667,2.8704,2.8743,2.8772,2.8811,2.8851,2.8906,2.8931,2.8978,2.9026,2.9098,2.9128,2.9165,2.9172,2.9179,2.9181,2.9182,2.918,2.9155,2.9175,2.9175,2.9175,2.9175,2.9175,0,2.855,2.8585,2.8627,2.8686,2.8721,2.8742,2.8789,2.8818,2.8859,2.8903,2.8943,2.8997,2.9042,2.909,2.9138,2.9158,2.9171,2.917,2.9169,2.9175,2.9171,2.9162,2.9159,2.9159,2.9159,2.9159,2.9159,2.9159,2.8557,2.8602,2.8629,2.8692,2.8727,2.8775,2.88,2.8836,2.8871,2.893,2.8969,2.9,2.9045,2.9097,2.9139,2.9152,2.9168,2.9164,2.9179,2.9175,2.9176,2.9177,2.9169,2.9167,2.9167,2.9181,2.9181,2.9181]}]]